User: anonymous   Login
Location: Vancouver
(49.2500°N, 123.1330°W)
Time: 10:01:26
(UTC-07:00)
Language:

Vanguard 2 Rocket - Orbit

View from above orbital plane
View from above orbital plane
View from above satellite
View from above satellite

Ground track
Ground track

The orbit data is extracted from the following two-line orbital elements,

1    12U 59001B   17083.44839389 +.00000158 +00000-0 +88847-4 0  9998
2    12 032.9015 162.4799 1667719 347.5832 008.8046 11.44140347387241
Epoch (UTC): 24 March 2017 10:45:41
Eccentricity: 0.1667719
inclination: 32.9015°
perigee height: 553 km
apogee height: 3328 km
right ascension of ascending node: 162.4799°
argument of perigee: 347.5832°
revolutions per day: 11.44140347
mean anomaly at epoch: 8.8046°
orbit number at epoch: 38724

The dashed part of the orbit path shows where the satellite is in the earth's shadow,  

DLR